[Iaude] MPEC S91: 2019 SO3 [a=2.81,e=0.52,i=5.0,H=21.4]

mpec at marsden.cfa.harvard.edu mpec at marsden.cfa.harvard.edu
Wed Sep 25 18:55:09 EDT 2019


M.P.E.C. 2019-S91                            Issued 2019 September 25, 22:53 UT

     The Minor Planet Electronic Circulars contain information on unusual
         minor planets and routine data on comets.  They are published
    on behalf of Division F of the International Astronomical Union by the
          Minor Planet Center, Smithsonian Astrophysical Observatory,
                          Cambridge, MA 02138, U.S.A.

             Prepared using the Tamkin Foundation Computer Network

                              MPC at CFA.HARVARD.EDU
            URL https://www.minorplanetcenter.net/    ISSN 1523-6714

                                    2019 SO3                                    


Observations:
     K19S03O* C2019 09 22.39926 02 32 54.53 +13 25 20.8          21.5 GVES091G96
     K19S03O  C2019 09 22.40313 02 32 54.95 +13 25 19.8          22.3 GVES091G96
     K19S03O  C2019 09 22.40701 02 32 55.42 +13 25 18.7          22.2 GVES091G96
     K19S03O  C2019 09 22.41088 02 32 55.86 +13 25 17.8          21.5 GVES091G96
     K19S03O  C2019 09 22.46993 02 33 02.43 +13 25 03.6          21.1 GVES091G96
     K19S03O  C2019 09 22.47377 02 33 02.86 +13 25 02.9          21.3 GVES091G96
     K19S03O  C2019 09 22.47777 02 33 03.32 +13 25 02.1          20.9 GVES091G96
     K19S03O  C2019 09 22.48169 02 33 03.76 +13 25 00.7          20.7 GVES091G96
     K19S03O KC2019 09 24.32571002 36 40.19 +13 16 59.6          21.6 VuES091H21
     K19S03O KC2019 09 24.33179502 36 40.85 +13 16 58.2          21.9 VuES091H21
     K19S03O KC2019 09 24.33991202 36 41.74 +13 16 55.7          21.6 VuES091H21
     K19S03O  C2019 09 24.59047 02 37 10.117+13 15 50.50         21.5 wUES091F51
     K19S03O  C2019 09 24.60175 02 37 11.328+13 15 47.08         22.0 wUES091F51
     K19S03O  C2019 09 24.61305 02 37 12.546+13 15 43.66         21.6 wUES091F51
     K19S03O  C2019 09 24.62440 02 37 13.766+13 15 40.35         21.6 wUES091F51
     K19S03O KC2019 09 25.06548702 38 04.83 +13 13 23.8          21.0 GVES091L01
     K19S03O KC2019 09 25.07021102 38 05.39 +13 13 22.5          20.6 GVES091L01
     K19S03O KC2019 09 25.07505702 38 05.87 +13 13 21.3          21.0 GVES091L01
     K19S03O  C2019 09 25.37887 02 38 40.71 +13 11 53.2          21.9 GVES091I52
     K19S03O  C2019 09 25.38315 02 38 41.19 +13 11 52.2          21.7 GVES091I52
     K19S03O  C2019 09 25.39511 02 38 42.47 +13 11 48.3          22.2 GVES091I52
     K19S03O  C2019 09 25.57634 02 39 02.511+13 10 56.61         21.2 wUES091F51
     K19S03O  C2019 09 25.58779 02 39 03.710+13 10 53.08         21.2 wUES091F51
     K19S03O  C2019 09 25.59929 02 39 04.917+13 10 49.49         21.6 wUES091F51
     K19S03O  C2019 09 25.61077 02 39 06.132+13 10 45.69         21.3 wUES091F51

Observer details:
F51 Pan-STARRS 1, Haleakala.  Observers J. Bulger, T. Lowe, A. Schultz, M. 
   Willman.  Measurers K. Chambers, S. Chastel, T. de Boer, L. Denneau, J. 
   Fairlamb, H. Flewelling, M. Huber, C.-C. Lin, E. Magnier, Y. Ramanjooloo, R. 
   Wainscoat, R. Weryk.  1.8-m Ritchey-Chretien + CCD.
G96 Mt. Lemmon Survey.  Observer G. J. Leonard.  Measurers B. M. Africano, E. 
   J. Christensen, G. A. Farneth, D. C. Fuls, A. R. Gibbs, A. D. Grauer, H. 
   Groeller, R. A. Kowalski, S. M. Larson, G. J. Leonard, T. A. Pruyne, D. 
   Rankin, R. L. Seaman, F. C. Shelly.  1.5-m reflector + 10K CCD.
H21 Astronomical Research Observatory, Westfield.  Observer R. Holmes.  
    Measurers S. Foglia, L. Buzzi, T. Linder, R. Holmes.  1.3-m f/4.0 
   astrograph + CCD.
I52 Steward Observatory, Mt. Lemmon Station.  Observer R. A. Kowalski.  
    Measurers B. M. Africano, E. J. Christensen, G. A. Farneth, D. C. Fuls, A. 
   R. Gibbs, A. D. Grauer, H. Groeller, R. A. Kowalski, S. M. Larson, G. J. 
   Leonard, T. A. Pruyne, D. Rankin, R. L. Seaman, F. C. Shelly.  1.0-m 
   reflector + CCD.
L01 Visnjan Observatory, Tican.  Observers K. Korlevic, F. Valentine.  Measurer 
   K. Korlevic.  1.0-m f/2.9 reflector + CCD.

Orbital elements:
2019 SO3                                                 Earth MOID = 0.3599 AU
Epoch 2019 Apr. 27.0 TT = JDT 2458600.5                 Bell
M 325.17444              (2000.0)            P               Q
n   0.20936015     Peri.  199.34364     +0.90701921     -0.42100383
a   2.8089243      Node   185.57645     +0.39692984     +0.86153092
e   0.5174803      Incl.    5.00707     +0.14058042     +0.28376091
P   4.71           H   21.4           G   0.15           U   7
Residuals in seconds of arc
190922 G96  0.2-  0.0     190924 H21  0.3-  0.3+    190925 I52  0.2-  0.2-
190922 G96  0.4-  0.1-    190924 H21  0.2-  0.1+    190925 I52  0.2+  0.1+
190922 G96  0.2+  0.3-    190924 F51  0.1+  0.1+    190925 I52  0.4+  0.2-
190922 G96  0.3+  0.3-    190924 F51  0.1+  0.0     190925 F51  0.1+  0.1-
190922 G96  0.1-  0.2-    190924 F51  0.1+  0.0     190925 F51  0.0   0.0
190922 G96  0.1-  0.1+    190924 F51  0.1+  0.1+    190925 F51  0.1-  0.0
190922 G96  0.1+  0.3+    190925 L01  0.7-  0.0     190925 F51  0.0   0.1-
190922 G96  0.1+  0.1-    190925 L01  0.1+  0.1+
190924 H21  0.3-  0.0     190925 L01  0.6-  0.4+

Ephemeris:
2019 SO3                 a,e,i = 2.81, 0.52, 5                   q = 1.3554
Date    TT    R. A. (2000) Decl.     Delta      r    Elong.  Phase     V
2019 08 26    01 32 05.5 +12 51 06   0.5864  1.4369   126.1    34.6    22.5
...
2019 09 10    02 06 33.8 +13 44 27   0.4977  1.3928   132.5    32.2    22.0
...
2019 09 18    02 23 56.0 +13 39 04   0.4608  1.3758   136.4    30.3    21.7
...
2019 09 24    02 36 02.3 +13 18 39   0.4378  1.3663   139.5    28.5    21.5
2019 09 25    02 37 57.3 +13 13 54   0.4344  1.3650   140.1    28.1    21.5
2019 09 26    02 39 50.4 +13 08 47   0.4311  1.3638   140.6    27.8    21.5
...
2019 10 02    02 50 25.0 +12 30 39   0.4136  1.3582   144.1    25.6    21.3
...
2019 10 10    03 02 20.3 +11 23 16   0.3970  1.3553   149.2    22.1    21.1
...
2019 10 25    03 17 13.9 +08 52 30   0.3870  1.3641   159.7    14.7    20.8

A. U. Tomatic                (C) Copyright 2019 MPC           M.P.E.C. 2019-S91




More information about the Iaude mailing list